Time,TemperatureF,DewpointF,PressureIn,WindDirection,WindDirectionDegrees,WindSpeedMPH,WindSpeedGustMPH,Humidity,HourlyPrecipIn,Conditions,Clouds,dailyrainin,SoftwareType,DateUTC
2013-04-06 00:00:00,41.2,23.0,29.60,NNW,329,0.0,0.0,49,0.00,,,0.00,WXlink_for_OpenVMS,2013-04-06 04:00:00,
2013-04-06 00:05:00,41.0,24.0,29.60,NNW,328,0.0,0.0,50,0.00,,,0.00,WXlink_for_OpenVMS,2013-04-06 04:05:00,
2013-04-06 00:10:00,40.8,24.0,29.60,NNW,328,0.0,0.0,50,0.00,,,0.00,WXlink_for_OpenVMS,2013-04-06 04:10:00,
2013-04-06 00:20:00,40.5,23.0,29.60,WNW,302,0.0,0.0,50,0.00,,,0.00,WXlink_for_OpenVMS,2013-04-06 04:20:00,
2013-04-06 00:25:00,40.3,23.0,29.60,NW,308,0.0,0.0,50,0.00,,,0.00,WXlink_for_OpenVMS,2013-04-06 04:25:00,
2013-04-06 00:30:00,40.1,23.0,29.60,WNW,301,0.0,0.0,50,0.00,,,0.00,WXlink_for_OpenVMS,2013-04-06 04:30:00,
2013-04-06 00:35:00,40.1,23.0,29.60,NW,307,3.1,3.1,50,0.00,,,0.00,WXlink_for_OpenVMS,2013-04-06 04:35:00,
2013-04-06 00:40:00,40.1,23.0,29.60,WNW,299,3.6,3.6,50,0.00,,,0.00,WXlink_for_OpenVMS,2013-04-06 04:40:00,
2013-04-06 00:45:00,39.9,23.0,29.63,NW,321,2.7,4.0,50,0.00,,,0.00,WXlink_for_OpenVMS,2013-04-06 04:45:00,
2013-04-06 00:50:00,39.9,23.0,29.63,NW,312,3.6,3.6,50,0.00,,,0.00,WXlink_for_OpenVMS,2013-04-06 04:50:00,
2013-04-06 00:55:00,39.9,22.0,29.63,NW,315,2.7,3.6,49,0.00,,,0.00,WXlink_for_OpenVMS,2013-04-06 04:55:00,
2013-04-06 01:00:00,39.7,22.0,29.63,NW,318,2.7,3.1,49,0.00,,,0.00,WXlink_for_OpenVMS,2013-04-06 05:00:00,
2013-04-06 01:05:00,39.4,22.0,29.63,NNW,338,2.7,3.1,49,0.00,,,0.00,WXlink_for_OpenVMS,2013-04-06 05:05:00,
2013-04-06 01:10:00,39.4,22.0,29.63,WNW,301,2.2,2.7,50,0.00,,,0.00,WXlink_for_OpenVMS,2013-04-06 05:10:00,
2013-04-06 01:15:00,39.2,22.0,29.63,NW,315,3.1,4.0,50,0.00,,,0.00,WXlink_for_OpenVMS,2013-04-06 05:15:00,
2013-04-06 01:25:00,38.8,22.0,29.63,NW,318,4.0,4.0,50,0.00,,,0.00,WXlink_for_OpenVMS,2013-04-06 05:25:00,
2013-04-06 01:35:00,38.7,22.0,29.63,NW,306,0.0,0.0,50,0.00,,,0.00,WXlink_for_OpenVMS,2013-04-06 05:35:00,
2013-04-06 01:40:00,38.7,22.0,29.63,NW,318,0.0,0.0,50,0.00,,,0.00,WXlink_for_OpenVMS,2013-04-06 05:40:00,
2013-04-06 01:45:00,38.7,22.0,29.63,NW,305,0.0,0.0,50,0.00,,,0.00,WXlink_for_OpenVMS,2013-04-06 05:45:00,
2013-04-06 01:50:00,38.5,21.0,29.63,WNW,302,4.9,4.9,50,0.00,,,0.00,WXlink_for_OpenVMS,2013-04-06 05:50:00,
2013-04-06 01:55:00,38.5,21.0,29.63,NNW,348,0.0,0.0,50,0.00,,,0.00,WXlink_for_OpenVMS,2013-04-06 05:55:00,
2013-04-06 02:05:00,38.1,21.0,29.63,NW,312,3.1,3.1,50,0.00,,,0.00,WXlink_for_OpenVMS,2013-04-06 06:05:00,
2013-04-06 02:15:00,38.1,21.0,29.66,NW,307,3.6,4.0,49,0.00,,,0.00,WXlink_for_OpenVMS,2013-04-06 06:15:00,
2013-04-06 02:20:00,37.9,20.0,29.66,West,264,4.9,4.9,48,0.00,,,0.00,WXlink_for_OpenVMS,2013-04-06 06:20:00,
2013-04-06 02:30:00,37.6,19.0,29.66,NW,319,4.0,4.0,46,0.00,,,0.00,WXlink_for_OpenVMS,2013-04-06 06:30:00,
2013-04-06 02:35:00,37.6,19.0,29.66,WNW,291,6.3,6.3,46,0.00,,,0.00,WXlink_for_OpenVMS,2013-04-06 06:35:00,
2013-04-06 02:40:00,37.4,18.0,29.66,WNW,285,6.3,6.3,45,0.00,,,0.00,WXlink_for_OpenVMS,2013-04-06 06:40:00,
2013-04-06 02:45:00,37.4,18.0,29.66,WNW,291,5.4,6.3,45,0.00,,,0.00,WXlink_for_OpenVMS,2013-04-06 06:45:00,
2013-04-06 02:55:00,37.0,17.0,29.66,NW,305,5.8,5.8,44,0.00,,,0.00,WXlink_for_OpenVMS,2013-04-06 06:55:00,
2013-04-06 03:05:00,36.9,17.0,29.66,WNW,292,3.1,3.1,44,0.00,,,0.00,WXlink_for_OpenVMS,2013-04-06 07:05:00,
2013-04-06 03:10:00,36.9,17.0,29.66,WNW,296,4.0,5.4,44,0.00,,,0.00,WXlink_for_OpenVMS,2013-04-06 07:10:00,
2013-04-06 03:15:00,36.7,17.0,29.66,WNW,300,4.0,6.3,44,0.00,,,0.00,WXlink_for_OpenVMS,2013-04-06 07:15:00,
2013-04-06 03:25:00,36.3,17.0,29.66,NNW,335,5.4,6.3,45,0.00,,,0.00,WXlink_for_OpenVMS,2013-04-06 07:25:00,
2013-04-06 03:35:00,36.1,16.0,29.69,WNW,300,6.7,6.7,44,0.00,,,0.00,WXlink_for_OpenVMS,2013-04-06 07:35:00,
2013-04-06 03:45:00,36.1,16.0,29.69,NNW,335,4.9,5.4,44,0.00,,,0.00,WXlink_for_OpenVMS,2013-04-06 07:45:00,
2013-04-06 03:50:00,36.0,16.0,29.69,West,277,5.4,5.4,44,0.00,,,0.00,WXlink_for_OpenVMS,2013-04-06 07:50:00,
2013-04-06 03:55:00,36.0,16.0,29.69,WNW,292,4.0,4.0,44,0.00,,,0.00,WXlink_for_OpenVMS,2013-04-06 07:55:00,
2013-04-06 04:00:00,36.0,16.0,29.72,NNW,339,5.4,5.8,44,0.00,,,0.00,WXlink_for_OpenVMS,2013-04-06 08:00:00,
2013-04-06 04:05:00,35.8,16.0,29.72,West,271,7.2,8.1,44,0.00,,,0.00,WXlink_for_OpenVMS,2013-04-06 08:05:00,
2013-04-06 04:10:00,35.8,15.0,29.72,West,265,7.6,7.6,43,0.00,,,0.00,WXlink_for_OpenVMS,2013-04-06 08:10:00,
2013-04-06 04:15:00,35.6,15.0,29.72,WNW,291,6.3,6.3,43,0.00,,,0.00,WXlink_for_OpenVMS,2013-04-06 08:15:00,
2013-04-06 04:20:00,35.6,15.0,29.72,WNW,284,3.6,5.4,43,0.00,,,0.00,WXlink_for_OpenVMS,2013-04-06 08:20:00,
2013-04-06 04:30:00,35.4,15.0,29.72,West,268,7.2,7.2,43,0.00,,,0.00,WXlink_for_OpenVMS,2013-04-06 08:30:00,
2013-04-06 04:35:00,35.4,15.0,29.72,WSW,248,5.4,5.4,43,0.00,,,0.00,WXlink_for_OpenVMS,2013-04-06 08:35:00,
2013-04-06 04:40:00,35.4,15.0,29.72,West,278,6.7,6.7,43,0.00,,,0.00,WXlink_for_OpenVMS,2013-04-06 08:40:00,
2013-04-06 04:45:00,35.2,15.0,29.72,West,271,3.6,3.6,43,0.00,,,0.00,WXlink_for_OpenVMS,2013-04-06 08:45:00,
2013-04-06 04:50:00,35.2,15.0,29.72,NW,314,3.6,3.6,43,0.00,,,0.00,WXlink_for_OpenVMS,2013-04-06 08:50:00,
2013-04-06 05:00:00,35.1,15.0,29.75,WNW,289,4.5,4.5,43,0.00,,,0.00,WXlink_for_OpenVMS,2013-04-06 09:00:00,
2013-04-06 05:10:00,34.7,14.0,29.75,West,270,5.4,5.4,43,0.00,,,0.00,WXlink_for_OpenVMS,2013-04-06 09:10:00,
2013-04-06 05:15:00,34.5,14.0,29.75,WNW,292,4.0,5.4,43,0.00,,,0.00,WXlink_for_OpenVMS,2013-04-06 09:15:00,
2013-04-06 05:20:00,34.5,14.0,29.75,West,271,4.5,5.8,43,0.00,,,0.00,WXlink_for_OpenVMS,2013-04-06 09:20:00,
2013-04-06 05:25:00,34.5,14.0,29.75,NW,305,6.3,6.3,43,0.00,,,0.00,WXlink_for_OpenVMS,2013-04-06 09:25:00,
2013-04-06 05:30:00,34.5,14.0,29.78,WNW,302,4.9,5.4,43,0.00,,,0.00,WXlink_for_OpenVMS,2013-04-06 09:30:00,
2013-04-06 05:35:00,34.3,14.0,29.78,WNW,300,4.5,5.4,43,0.00,,,0.00,WXlink_for_OpenVMS,2013-04-06 09:35:00,
2013-04-06 05:45:00,34.2,14.0,29.78,WNW,300,6.7,6.7,43,0.00,,,0.00,WXlink_for_OpenVMS,2013-04-06 09:45:00,
2013-04-06 05:50:00,34.0,14.0,29.78,NW,321,4.9,6.3,43,0.00,,,0.00,WXlink_for_OpenVMS,2013-04-06 09:50:00,
2013-04-06 06:10:00,33.8,14.0,29.78,NNW,327,6.3,6.3,43,0.00,,,0.00,WXlink_for_OpenVMS,2013-04-06 10:10:00,
2013-04-06 06:15:00,33.6,13.0,29.81,West,262,5.8,5.8,42,0.00,,,0.00,WXlink_for_OpenVMS,2013-04-06 10:15:00,
2013-04-06 06:20:00,33.6,13.0,29.81,WNW,291,4.5,5.4,42,0.00,,,0.00,WXlink_for_OpenVMS,2013-04-06 10:20:00,
2013-04-06 06:25:00,33.6,13.0,29.81,WNW,288,3.6,4.0,42,0.00,,,0.00,WXlink_for_OpenVMS,2013-04-06 10:25:00,
2013-04-06 06:30:00,33.6,13.0,29.81,NW,310,3.6,3.6,42,0.00,,,0.00,WXlink_for_OpenVMS,2013-04-06 10:30:00,
2013-04-06 06:35:00,33.6,13.0,29.81,WNW,290,3.6,3.6,42,0.00,,,0.00,WXlink_for_OpenVMS,2013-04-06 10:35:00,
2013-04-06 06:45:00,33.4,13.0,29.84,East,80,4.5,4.5,42,0.00,,,0.00,WXlink_for_OpenVMS,2013-04-06 10:45:00,
2013-04-06 06:55:00,33.3,13.0,29.84,NW,326,4.9,5.8,42,0.00,,,0.00,WXlink_for_OpenVMS,2013-04-06 10:55:00,
2013-04-06 07:05:00,33.1,12.0,29.84,West,275,6.3,6.3,42,0.00,,,0.00,WXlink_for_OpenVMS,2013-04-06 11:05:00,
2013-04-06 07:10:00,33.1,12.0,29.84,WNW,287,5.8,5.8,42,0.00,,,0.00,WXlink_for_OpenVMS,2013-04-06 11:10:00,
2013-04-06 07:15:00,33.1,12.0,29.84,NNW,328,4.0,4.0,42,0.00,,,0.00,WXlink_for_OpenVMS,2013-04-06 11:15:00,
2013-04-06 07:20:00,33.1,12.0,29.84,NNW,331,4.9,5.4,42,0.00,,,0.00,WXlink_for_OpenVMS,2013-04-06 11:20:00,
2013-04-06 07:30:00,33.1,12.0,29.86,NW,308,4.0,5.8,42,0.00,,,0.00,WXlink_for_OpenVMS,2013-04-06 11:30:00,
2013-04-06 07:35:00,33.1,12.0,29.86,WNW,302,3.6,4.0,42,0.00,,,0.00,WXlink_for_OpenVMS,2013-04-06 11:35:00,
2013-04-06 07:40:00,33.1,12.0,29.86,NNW,335,4.9,5.4,42,0.00,,,0.00,WXlink_for_OpenVMS,2013-04-06 11:40:00,
2013-04-06 07:50:00,32.9,12.0,29.86,WNW,303,7.2,8.7,42,0.00,,,0.00,WXlink_for_OpenVMS,2013-04-06 11:50:00,
2013-04-06 07:55:00,32.9,12.0,29.86,NNW,341,6.7,6.7,41,0.00,,,0.00,WXlink_for_OpenVMS,2013-04-06 11:55:00,
2013-04-06 08:05:00,32.9,12.0,29.86,NNW,330,5.8,6.3,41,0.00,,,0.00,WXlink_for_OpenVMS,2013-04-06 12:05:00,
2013-04-06 08:15:00,33.1,12.0,29.86,WNW,289,4.9,4.9,41,0.00,,,0.00,WXlink_for_OpenVMS,2013-04-06 12:15:00,
2013-04-06 08:20:00,33.3,13.0,29.86,NNW,339,4.0,6.3,42,0.00,,,0.00,WXlink_for_OpenVMS,2013-04-06 12:20:00,
2013-04-06 08:25:00,33.3,12.0,29.86,NNW,331,4.0,5.8,41,0.00,,,0.00,WXlink_for_OpenVMS,2013-04-06 12:25:00,
2013-04-06 08:30:00,33.3,12.0,29.86,WNW,291,5.4,5.8,41,0.00,,,0.00,WXlink_for_OpenVMS,2013-04-06 12:30:00,
2013-04-06 08:40:00,33.3,12.0,29.86,NW,320,4.0,5.4,41,0.00,,,0.00,WXlink_for_OpenVMS,2013-04-06 12:40:00,
2013-04-06 08:45:00,34.0,13.0,29.90,NNW,337,4.5,5.4,41,0.00,,,0.00,WXlink_for_OpenVMS,2013-04-06 12:45:00,
2013-04-06 08:50:00,34.2,13.0,29.90,NW,305,3.6,5.4,41,0.00,,,0.00,WXlink_for_OpenVMS,2013-04-06 12:50:00,
2013-04-06 08:55:00,34.0,13.0,29.90,NNW,338,5.4,6.3,41,0.00,,,0.00,WXlink_for_OpenVMS,2013-04-06 12:55:00,
2013-04-06 09:00:00,33.8,12.0,29.90,NW,321,6.7,8.1,40,0.00,,,0.00,WXlink_for_OpenVMS,2013-04-06 13:00:00,
2013-04-06 09:05:00,33.6,12.0,29.90,North,3,4.5,4.5,40,0.00,,,0.00,WXlink_for_OpenVMS,2013-04-06 13:05:00,
2013-04-06 09:10:00,33.8,11.0,29.90,NNW,331,4.0,7.6,39,0.00,,,0.00,WXlink_for_OpenVMS,2013-04-06 13:10:00,
2013-04-06 09:15:00,34.0,11.0,29.90,NW,321,4.9,5.4,38,0.00,,,0.00,WXlink_for_OpenVMS,2013-04-06 13:15:00,
2013-04-06 09:25:00,34.3,10.0,29.90,West,264,4.9,4.9,36,0.00,,,0.00,WXlink_for_OpenVMS,2013-04-06 13:25:00,
2013-04-06 09:30:00,34.5,10.0,29.90,West,274,6.3,6.3,35,0.00,,,0.00,WXlink_for_OpenVMS,2013-04-06 13:30:00,
2013-04-06 09:40:00,34.5,9.0,29.90,NW,311,6.7,6.7,34,0.00,,,0.00,WXlink_for_OpenVMS,2013-04-06 13:40:00,
2013-04-06 09:45:00,34.7,9.0,29.93,NW,313,4.5,4.9,33,0.00,,,0.00,WXlink_for_OpenVMS,2013-04-06 13:45:00,
2013-04-06 09:50:00,34.9,9.0,29.93,NNW,327,4.5,4.5,33,0.00,,,0.00,WXlink_for_OpenVMS,2013-04-06 13:50:00,
2013-04-06 09:55:00,35.1,8.0,29.93,West,281,6.3,6.3,32,0.00,,,0.00,WXlink_for_OpenVMS,2013-04-06 13:55:00,
2013-04-06 10:00:00,35.2,8.0,29.93,WNW,283,4.5,5.4,32,0.00,,,0.00,WXlink_for_OpenVMS,2013-04-06 14:00:00,
2013-04-06 10:10:00,35.6,8.0,29.93,WNW,297,4.5,8.1,31,0.00,,,0.00,WXlink_for_OpenVMS,2013-04-06 14:10:00,
2013-04-06 10:15:00,35.8,7.0,29.93,NW,321,6.3,8.1,30,0.00,,,0.00,WXlink_for_OpenVMS,2013-04-06 14:15:00,
2013-04-06 10:20:00,35.6,7.0,29.93,West,266,3.1,5.4,30,0.00,,,0.00,WXlink_for_OpenVMS,2013-04-06 14:20:00,
2013-04-06 10:25:00,35.8,7.0,29.93,NNW,331,4.0,8.3,30,0.00,,,0.00,WXlink_for_OpenVMS,2013-04-06 14:25:00,
2013-04-06 10:30:00,36.0,6.0,29.93,WNW,303,5.8,5.8,28,0.00,,,0.00,WXlink_for_OpenVMS,2013-04-06 14:30:00,
2013-04-06 10:35:00,36.1,6.0,29.93,NW,326,4.9,5.4,28,0.00,,,0.00,WXlink_for_OpenVMS,2013-04-06 14:35:00,
2013-04-06 10:45:00,36.5,5.0,29.93,NNW,333,4.5,4.5,26,0.00,,,0.00,WXlink_for_OpenVMS,2013-04-06 14:45:00,
2013-04-06 10:50:00,36.9,5.0,29.93,WNW,297,5.4,5.4,26,0.00,,,0.00,WXlink_for_OpenVMS,2013-04-06 14:50:00,
2013-04-06 10:55:00,36.9,3.0,29.93,WNW,282,4.9,7.2,24,0.00,,,0.00,WXlink_for_OpenVMS,2013-04-06 14:55:00,
2013-04-06 11:00:00,36.9,1.0,29.93,WNW,295,4.9,5.4,21,0.00,,,0.00,WXlink_for_OpenVMS,2013-04-06 15:00:00,
2013-04-06 11:05:00,37.0,1.0,29.93,WNW,297,6.7,6.7,21,0.00,,,0.00,WXlink_for_OpenVMS,2013-04-06 15:05:00,
2013-04-06 11:10:00,37.4,-1.0,29.93,NNW,330,7.6,8.3,19,0.00,,,0.00,WXlink_for_OpenVMS,2013-04-06 15:10:00,
2013-04-06 11:15:00,37.4,1.0,29.96,WNW,295,4.5,4.5,21,0.00,,,0.00,WXlink_for_OpenVMS,2013-04-06 15:15:00,
2013-04-06 11:20:00,37.9,-1.0,29.96,NW,326,4.0,4.9,19,0.00,,,0.00,WXlink_for_OpenVMS,2013-04-06 15:20:00,
2013-04-06 11:25:00,37.8,-4.0,29.96,NNW,334,4.9,5.4,16,0.00,,,0.00,WXlink_for_OpenVMS,2013-04-06 15:25:00,
2013-04-06 11:30:00,37.9,1.0,29.96,NNW,331,0.0,0.0,21,0.00,,,0.00,WXlink_for_OpenVMS,2013-04-06 15:30:00,
2013-04-06 11:35:00,38.5,-1.0,29.96,West,261,6.7,6.7,18,0.00,,,0.00,WXlink_for_OpenVMS,2013-04-06 15:35:00,
2013-04-06 11:40:00,38.7,-1.0,29.96,NNW,340,5.4,5.8,18,0.00,,,0.00,WXlink_for_OpenVMS,2013-04-06 15:40:00,
2013-04-06 11:45:00,39.0,-1.0,29.96,NNW,330,8.1,8.1,18,0.00,,,0.00,WXlink_for_OpenVMS,2013-04-06 15:45:00,
2013-04-06 11:55:00,39.9,-3.0,29.96,NNW,338,4.5,6.3,16,0.00,,,0.00,WXlink_for_OpenVMS,2013-04-06 15:55:00,
2013-04-06 12:00:00,40.1,-7.0,29.93,WSW,243,7.2,7.2,13,0.00,,,0.00,WXlink_for_OpenVMS,2013-04-06 16:00:00,
2013-04-06 12:05:00,40.3,-10.0,29.93,NNW,340,6.3,7.6,11,0.00,,,0.00,WXlink_for_OpenVMS,2013-04-06 16:05:00,
2013-04-06 12:11:00,40.5,-7.0,29.93,NNW,329,3.6,4.0,13,0.00,,,0.00,WXlink_for_OpenVMS,2013-04-06 16:11:00,
2013-04-06 12:20:00,40.8,-10.0,29.93,NW,311,5.4,6.3,11,0.00,,,0.00,WXlink_for_OpenVMS,2013-04-06 16:20:00,
2013-04-06 12:25:00,40.8,-6.0,29.93,NW,312,3.1,3.6,13,0.00,,,0.00,WXlink_for_OpenVMS,2013-04-06 16:25:00,
2013-04-06 12:30:00,41.5,-11.0,29.96,West,273,4.0,4.0,10,0.00,,,0.00,WXlink_for_OpenVMS,2013-04-06 16:30:00,
2013-04-06 12:35:00,41.9,-7.0,29.96,NNW,329,4.5,7.2,12,0.00,,,0.00,WXlink_for_OpenVMS,2013-04-06 16:35:00,
2013-04-06 12:40:00,42.4,-10.0,29.96,WSW,237,5.4,6.3,10,0.00,,,0.00,WXlink_for_OpenVMS,2013-04-06 16:40:00,
2013-04-06 12:45:00,42.6,-12.0,29.96,NW,319,4.9,4.9,9,0.00,,,0.00,WXlink_for_OpenVMS,2013-04-06 16:45:00,
2013-04-06 12:55:00,42.6,-12.0,29.96,North,353,4.0,5.4,9,0.00,,,0.00,WXlink_for_OpenVMS,2013-04-06 16:55:00,
2013-04-06 13:00:00,42.3,-13.0,29.96,WNW,303,3.1,0.0,9,0.00,,,0.00,WXlink_for_OpenVMS,2013-04-06 17:00:00,
2013-04-06 13:05:00,43.3,-12.0,29.96,WNW,297,4.9,4.9,9,0.00,,,0.00,WXlink_for_OpenVMS,2013-04-06 17:05:00,
2013-04-06 13:15:00,44.2,-13.0,29.93,WNW,282,3.6,5.4,8,0.00,,,0.00,WXlink_for_OpenVMS,2013-04-06 17:15:00,
2013-04-06 13:25:00,45.0,-13.0,29.93,NW,325,4.9,5.4,8,0.00,,,0.00,WXlink_for_OpenVMS,2013-04-06 17:25:00,
2013-04-06 13:30:00,45.1,-13.0,29.93,WNW,302,5.4,5.4,8,0.00,,,0.00,WXlink_for_OpenVMS,2013-04-06 17:30:00,
2013-04-06 13:35:00,45.3,-13.0,29.93,SW,230,4.9,4.9,8,0.00,,,0.00,WXlink_for_OpenVMS,2013-04-06 17:35:00,
2013-04-06 13:40:00,46.2,-12.0,29.93,NW,310,5.8,6.3,8,0.00,,,0.00,WXlink_for_OpenVMS,2013-04-06 17:40:00,
2013-04-06 13:45:00,46.9,-11.0,29.93,NW,312,4.5,5.8,8,0.00,,,0.00,WXlink_for_OpenVMS,2013-04-06 17:45:00,
2013-04-06 13:50:00,46.4,-12.0,29.93,WNW,296,6.3,8.7,8,0.00,,,0.00,WXlink_for_OpenVMS,2013-04-06 17:50:00,
2013-04-06 13:55:00,46.8,-12.0,29.93,NW,310,4.5,4.9,8,0.00,,,0.00,WXlink_for_OpenVMS,2013-04-06 17:55:00,
2013-04-06 14:05:00,45.9,-12.0,29.96,SW,236,3.1,5.4,8,0.00,,,0.00,WXlink_for_OpenVMS,2013-04-06 18:05:00,
2013-04-06 14:15:00,46.9,-11.0,29.96,North,7,5.4,5.4,8,0.00,,,0.00,WXlink_for_OpenVMS,2013-04-06 18:15:00,
2013-04-06 14:20:00,46.8,-12.0,29.96,West,280,4.9,5.8,8,0.00,,,0.00,WXlink_for_OpenVMS,2013-04-06 18:20:00,
2013-04-06 14:25:00,47.1,-11.0,29.96,NNW,328,3.1,6.3,8,0.00,,,0.00,WXlink_for_OpenVMS,2013-04-06 18:25:00,
2013-04-06 14:30:00,47.5,-11.0,29.93,West,260,3.6,3.6,8,0.00,,,0.00,WXlink_for_OpenVMS,2013-04-06 18:30:00,
2013-04-06 14:40:00,48.0,-11.0,29.93,NNW,327,4.5,4.5,8,0.00,,,0.00,WXlink_for_OpenVMS,2013-04-06 18:40:00,
2013-04-06 14:45:00,48.0,-11.0,29.93,West,269,4.0,5.8,8,0.00,,,0.00,WXlink_for_OpenVMS,2013-04-06 18:45:00,
2013-04-06 14:50:00,48.4,-10.0,29.93,WSW,247,4.0,0.0,8,0.00,,,0.00,WXlink_for_OpenVMS,2013-04-06 18:50:00,
2013-04-06 14:55:00,48.0,-11.0,29.93,NW,325,2.7,0.0,8,0.00,,,0.00,WXlink_for_OpenVMS,2013-04-06 18:55:00,
2013-04-06 15:00:00,48.4,-10.0,29.93,NNW,328,3.6,5.4,8,0.00,,,0.00,WXlink_for_OpenVMS,2013-04-06 19:00:00,
2013-04-06 15:05:00,48.2,-10.0,29.93,NW,311,0.0,0.0,8,0.00,,,0.00,WXlink_for_OpenVMS,2013-04-06 19:05:00,
2013-04-06 15:10:00,48.0,-11.0,29.93,NW,310,2.2,4.0,8,0.00,,,0.00,WXlink_for_OpenVMS,2013-04-06 19:10:00,
2013-04-06 15:15:00,48.6,-10.0,29.93,SW,233,4.9,5.4,8,0.00,,,0.00,WXlink_for_OpenVMS,2013-04-06 19:15:00,
2013-04-06 15:20:00,49.1,-10.0,29.93,WNW,298,4.0,4.0,8,0.00,,,0.00,WXlink_for_OpenVMS,2013-04-06 19:20:00,
2013-04-06 15:25:00,49.5,-10.0,29.93,SW,229,3.6,3.6,8,0.00,,,0.00,WXlink_for_OpenVMS,2013-04-06 19:25:00,
2013-04-06 15:30:00,49.8,-9.0,29.93,NW,325,4.5,4.5,8,0.00,,,0.00,WXlink_for_OpenVMS,2013-04-06 19:30:00,
2013-04-06 15:35:00,49.5,-10.0,29.93,WNW,288,6.3,6.3,8,0.00,,,0.00,WXlink_for_OpenVMS,2013-04-06 19:35:00,
2013-04-06 15:45:00,48.7,-10.0,29.93,West,266,3.1,3.1,8,0.00,,,0.00,WXlink_for_OpenVMS,2013-04-06 19:45:00,
2013-04-06 15:50:00,48.4,-10.0,29.93,WNW,288,3.1,3.6,8,0.00,,,0.00,WXlink_for_OpenVMS,2013-04-06 19:50:00,
2013-04-06 15:55:00,48.7,-10.0,29.93,West,273,3.1,3.1,8,0.00,,,0.00,WXlink_for_OpenVMS,2013-04-06 19:55:00,
2013-04-06 16:00:00,48.9,-10.0,29.93,SW,229,4.9,4.9,8,0.00,,,0.00,WXlink_for_OpenVMS,2013-04-06 20:00:00,
2013-04-06 16:05:00,48.9,-10.0,29.93,NW,316,2.7,3.1,8,0.00,,,0.00,WXlink_for_OpenVMS,2013-04-06 20:05:00,
2013-04-06 16:10:00,48.2,-10.0,29.93,WSW,250,2.7,2.7,8,0.00,,,0.00,WXlink_for_OpenVMS,2013-04-06 20:10:00,
2013-04-06 16:15:00,48.6,-10.0,29.93,WSW,246,4.0,4.0,8,0.00,,,0.00,WXlink_for_OpenVMS,2013-04-06 20:15:00,
2013-04-06 16:20:00,48.9,-10.0,29.93,WSW,257,2.7,0.0,8,0.00,,,0.00,WXlink_for_OpenVMS,2013-04-06 20:20:00,
2013-04-06 16:30:00,49.5,-10.0,29.93,SW,236,4.9,4.9,8,0.00,,,0.00,WXlink_for_OpenVMS,2013-04-06 20:30:00,
2013-04-06 16:40:00,48.4,-10.0,29.93,West,259,0.0,4.9,8,0.00,,,0.00,WXlink_for_OpenVMS,2013-04-06 20:40:00,
2013-04-06 16:45:00,48.2,-10.0,29.93,WSW,256,0.0,0.0,8,0.00,,,0.00,WXlink_for_OpenVMS,2013-04-06 20:45:00,
2013-04-06 16:50:00,48.4,-10.0,29.93,WSW,257,2.7,4.0,8,0.00,,,0.00,WXlink_for_OpenVMS,2013-04-06 20:50:00,
2013-04-06 17:00:00,48.6,-10.0,29.96,NW,322,3.6,4.9,8,0.00,,,0.00,WXlink_for_OpenVMS,2013-04-06 21:00:00,
2013-04-06 17:05:00,48.2,-10.0,29.96,North,353,3.1,4.9,8,0.00,,,0.00,WXlink_for_OpenVMS,2013-04-06 21:05:00,
2013-04-06 17:10:00,47.7,-11.0,29.96,NE,38,2.7,3.1,8,0.00,,,0.00,WXlink_for_OpenVMS,2013-04-06 21:10:00,
2013-04-06 17:20:00,47.3,-11.0,29.96,WNW,286,4.0,4.5,8,0.00,,,0.00,WXlink_for_OpenVMS,2013-04-06 21:20:00,
2013-04-06 17:25:00,47.1,-11.0,29.96,West,281,3.1,4.0,8,0.00,,,0.00,WXlink_for_OpenVMS,2013-04-06 21:25:00,
2013-04-06 17:35:00,47.1,-11.0,29.96,SSW,210,3.1,3.6,8,0.00,,,0.00,WXlink_for_OpenVMS,2013-04-06 21:35:00,
2013-04-06 17:40:00,47.3,-11.0,29.96,NW,312,4.0,4.9,8,0.00,,,0.00,WXlink_for_OpenVMS,2013-04-06 21:40:00,
2013-04-06 17:45:00,46.9,-11.0,29.96,NNW,337,0.0,0.0,8,0.00,,,0.00,WXlink_for_OpenVMS,2013-04-06 21:45:00,
2013-04-06 17:50:00,46.8,-12.0,29.96,SW,229,0.0,0.0,8,0.00,,,0.00,WXlink_for_OpenVMS,2013-04-06 21:50:00,
2013-04-06 17:55:00,46.9,-11.0,29.96,SW,226,3.1,3.1,8,0.00,,,0.00,WXlink_for_OpenVMS,2013-04-06 21:55:00,
2013-04-06 18:00:00,46.9,-11.0,29.96,WSW,257,2.2,2.2,8,0.00,,,0.00,WXlink_for_OpenVMS,2013-04-06 22:00:00,
2013-04-06 18:05:00,46.9,-11.0,29.96,West,267,0.0,0.0,8,0.00,,,0.00,WXlink_for_OpenVMS,2013-04-06 22:05:00,
2013-04-06 18:10:00,47.1,-11.0,29.96,NW,322,0.0,0.0,8,0.00,,,0.00,WXlink_for_OpenVMS,2013-04-06 22:10:00,
2013-04-06 18:15:00,47.1,-11.0,29.99,WSW,249,0.0,0.0,8,0.00,,,0.00,WXlink_for_OpenVMS,2013-04-06 22:15:00,
2013-04-06 18:20:00,46.9,-11.0,29.99,SW,229,0.0,0.0,8,0.00,,,0.00,WXlink_for_OpenVMS,2013-04-06 22:20:00,
2013-04-06 18:25:00,46.8,-12.0,29.99,SW,221,0.0,0.0,8,0.00,,,0.00,WXlink_for_OpenVMS,2013-04-06 22:25:00,
2013-04-06 18:30:00,46.6,-9.0,29.99,SW,230,0.0,0.0,9,0.00,,,0.00,WXlink_for_OpenVMS,2013-04-06 22:30:00,
2013-04-06 18:45:00,46.0,-10.0,29.99,SW,232,0.0,0.0,9,0.00,,,0.00,WXlink_for_OpenVMS,2013-04-06 22:45:00,
2013-04-06 18:50:00,45.9,-10.0,29.99,SW,232,0.0,0.0,9,0.00,,,0.00,WXlink_for_OpenVMS,2013-04-06 22:50:00,
2013-04-06 18:55:00,45.7,-10.0,29.99,SW,232,0.0,0.0,9,0.00,,,0.00,WXlink_for_OpenVMS,2013-04-06 22:55:00,
2013-04-06 19:00:00,45.5,-10.0,29.99,West,262,0.0,0.0,9,0.00,,,0.00,WXlink_for_OpenVMS,2013-04-06 23:00:00,
2013-04-06 19:05:00,45.1,-10.0,29.99,West,262,0.0,0.0,9,0.00,,,0.00,WXlink_for_OpenVMS,2013-04-06 23:05:00,
2013-04-06 19:15:00,44.4,-11.0,29.99,West,262,0.0,0.0,9,0.00,,,0.00,WXlink_for_OpenVMS,2013-04-06 23:15:00,
2013-04-06 19:20:00,44.1,-9.0,29.99,West,262,0.0,0.0,10,0.00,,,0.00,WXlink_for_OpenVMS,2013-04-06 23:20:00,
2013-04-06 19:30:00,43.3,-10.0,30.02,West,271,0.0,0.0,10,0.00,,,0.00,WXlink_for_OpenVMS,2013-04-06 23:30:00,
2013-04-06 19:35:00,43.0,-10.0,30.02,West,271,0.0,0.0,10,0.00,,,0.00,WXlink_for_OpenVMS,2013-04-06 23:35:00,
2013-04-06 19:40:00,42.1,-11.0,30.02,West,271,0.0,0.0,10,0.00,,,0.00,WXlink_for_OpenVMS,2013-04-06 23:40:00,
2013-04-06 19:50:00,41.0,-12.0,30.02,West,271,0.0,0.0,10,0.00,,,0.00,WXlink_for_OpenVMS,2013-04-06 23:50:00,
2013-04-06 19:55:00,40.5,-12.0,30.02,West,271,0.0,0.0,10,0.00,,,0.00,WXlink_for_OpenVMS,2013-04-06 23:55:00,
2013-04-06 20:00:00,40.1,-12.0,30.02,West,271,0.0,0.0,10,0.00,,,0.00,WXlink_for_OpenVMS,2013-04-07 00:00:00,
2013-04-06 20:10:00,39.7,-12.0,30.02,West,271,0.0,0.0,10,0.00,,,0.00,WXlink_for_OpenVMS,2013-04-07 00:10:00,
2013-04-06 20:20:00,40.1,-12.0,30.02,West,271,0.0,0.0,10,0.00,,,0.00,WXlink_for_OpenVMS,2013-04-07 00:20:00,
2013-04-06 20:25:00,39.9,-12.0,30.02,West,271,0.0,0.0,10,0.00,,,0.00,WXlink_for_OpenVMS,2013-04-07 00:25:00,
2013-04-06 20:35:00,39.2,-13.0,30.05,West,271,0.0,0.0,10,0.00,,,0.00,WXlink_for_OpenVMS,2013-04-07 00:35:00,
2013-04-06 20:40:00,38.7,-13.0,30.05,West,271,0.0,0.0,10,0.00,,,0.00,WXlink_for_OpenVMS,2013-04-07 00:40:00,
2013-04-06 20:50:00,37.9,-7.0,30.05,West,271,0.0,0.0,14,0.00,,,0.00,WXlink_for_OpenVMS,2013-04-07 00:50:00,
2013-04-06 20:55:00,37.8,-1.0,30.05,West,271,0.0,0.0,19,0.00,,,0.00,WXlink_for_OpenVMS,2013-04-07 00:55:00,
2013-04-06 21:00:00,37.6,4.0,30.05,West,271,0.0,0.0,24,0.00,,,0.00,WXlink_for_OpenVMS,2013-04-07 01:00:00,
2013-04-06 21:05:00,37.2,4.0,30.05,West,271,0.0,0.0,24,0.00,,,0.00,WXlink_for_OpenVMS,2013-04-07 01:05:00,
2013-04-06 21:10:00,37.0,6.0,30.05,West,271,0.0,0.0,27,0.00,,,0.00,WXlink_for_OpenVMS,2013-04-07 01:10:00,
2013-04-06 21:15:00,36.9,6.0,30.05,West,271,0.0,0.0,27,0.00,,,0.00,WXlink_for_OpenVMS,2013-04-07 01:15:00,
2013-04-06 21:20:00,36.7,6.0,30.05,West,271,0.0,0.0,27,0.00,,,0.00,WXlink_for_OpenVMS,2013-04-07 01:20:00,
2013-04-06 21:25:00,36.3,8.0,30.05,West,271,0.0,0.0,30,0.00,,,0.00,WXlink_for_OpenVMS,2013-04-07 01:25:00,
2013-04-06 21:30:00,36.1,8.0,30.05,West,271,0.0,0.0,31,0.00,,,0.00,WXlink_for_OpenVMS,2013-04-07 01:30:00,
2013-04-06 21:35:00,35.8,9.0,30.05,West,271,0.0,0.0,32,0.00,,,0.00,WXlink_for_OpenVMS,2013-04-07 01:35:00,
2013-04-06 21:40:00,35.4,8.0,30.05,West,271,0.0,0.0,32,0.00,,,0.00,WXlink_for_OpenVMS,2013-04-07 01:40:00,
2013-04-06 21:50:00,35.1,9.0,30.05,West,271,0.0,0.0,33,0.00,,,0.00,WXlink_for_OpenVMS,2013-04-07 01:50:00,
2013-04-06 21:55:00,35.1,9.0,30.05,West,271,0.0,0.0,34,0.00,,,0.00,WXlink_for_OpenVMS,2013-04-07 01:55:00,
2013-04-06 22:00:00,34.9,9.0,30.05,West,271,0.0,0.0,34,0.00,,,0.00,WXlink_for_OpenVMS,2013-04-07 02:00:00,
2013-04-06 22:15:00,34.3,11.0,30.05,West,271,0.0,0.0,38,0.00,,,0.00,WXlink_for_OpenVMS,2013-04-07 02:15:00,
2013-04-06 22:20:00,34.2,11.0,30.05,West,271,0.0,0.0,38,0.00,,,0.00,WXlink_for_OpenVMS,2013-04-07 02:20:00,
2013-04-06 22:25:00,34.0,11.0,30.05,West,271,0.0,0.0,38,0.00,,,0.00,WXlink_for_OpenVMS,2013-04-07 02:25:00,
2013-04-06 22:30:00,34.0,12.0,30.05,West,271,0.0,0.0,39,0.00,,,0.00,WXlink_for_OpenVMS,2013-04-07 02:30:00,
2013-04-06 22:40:00,33.8,12.0,30.05,West,271,0.0,0.0,40,0.00,,,0.00,WXlink_for_OpenVMS,2013-04-07 02:40:00,
2013-04-06 22:45:00,33.6,12.0,30.05,West,271,0.0,0.0,40,0.00,,,0.00,WXlink_for_OpenVMS,2013-04-07 02:45:00,
2013-04-06 22:50:00,33.3,12.0,30.05,West,271,0.0,0.0,40,0.00,,,0.00,WXlink_for_OpenVMS,2013-04-07 02:50:00,
2013-04-06 23:00:00,33.1,11.0,30.05,West,271,0.0,0.0,40,0.00,,,0.00,WXlink_for_OpenVMS,2013-04-07 03:00:00,
2013-04-06 23:05:00,32.9,11.0,30.05,West,271,0.0,0.0,40,0.00,,,0.00,WXlink_for_OpenVMS,2013-04-07 03:05:00,
2013-04-06 23:10:00,32.7,11.0,30.05,West,271,0.0,0.0,40,0.00,,,0.00,WXlink_for_OpenVMS,2013-04-07 03:10:00,
2013-04-06 23:15:00,32.7,12.0,30.05,West,271,0.0,0.0,41,0.00,,,0.00,WXlink_for_OpenVMS,2013-04-07 03:15:00,
2013-04-06 23:20:00,32.7,12.0,30.05,West,271,0.0,0.0,41,0.00,,,0.00,WXlink_for_OpenVMS,2013-04-07 03:20:00,
2013-04-06 23:25:00,32.7,12.0,30.05,West,271,0.0,0.0,41,0.00,,,0.00,WXlink_for_OpenVMS,2013-04-07 03:25:00,
2013-04-06 23:30:00,32.4,11.0,30.05,West,271,0.0,0.0,41,0.00,,,0.00,WXlink_for_OpenVMS,2013-04-07 03:30:00,
2013-04-06 23:35:00,32.0,11.0,30.05,West,271,0.0,0.0,41,0.00,,,0.00,WXlink_for_OpenVMS,2013-04-07 03:35:00,
2013-04-06 23:40:00,32.0,11.0,30.05,West,271,0.0,0.0,41,0.00,,,0.00,WXlink_for_OpenVMS,2013-04-07 03:40:00,
2013-04-06 23:45:00,32.0,11.0,30.05,West,271,0.0,0.0,41,0.00,,,0.00,WXlink_for_OpenVMS,2013-04-07 03:45:00,
2013-04-06 23:50:00,32.0,11.0,30.05,West,271,0.0,0.0,41,0.00,,,0.00,WXlink_for_OpenVMS,2013-04-07 03:50:00,
2013-04-06 23:55:00,31.8,11.0,30.05,West,271,0.0,0.0,42,0.00,,,0.00,WXlink_for_OpenVMS,2013-04-07 03:55:00,